BAW99 EGLL-CYYZ

Flight info

Callsign BAW99
Flight time N/A
Altitude 36000
Route ULTIB T420 TNT UL28 PENIL M144 BAGSO DCT DOGAL/M084F380 NATD NEEKO/N0479F380 N622E TAFFY/N0477F400 DCT VILRO DCT SAVEX Q806 TUKIR IMEBA9
Aircraft B789/H-L/LB1D1

Departure

Time 2026-05-05 14:04
Airport London Heathrow Airport (EGLL)

Arrival

Time N/A
Airport Toronto Pearson International Airport (CYYZ)
Time Latitude Longitude Altitude Speed Heading
2026-05-05 13:44 51.47181 -0.48235 93 ft 0 kts 89°
2026-05-05 13:50 51.47181 -0.48236 93 ft 0 kts 89°
2026-05-05 13:57 51.47181 -0.48237 90 ft 1 kts 89°
2026-05-05 13:57 51.47181 -0.48274 91 ft 4 kts 89°
2026-05-05 13:57 51.47181 -0.48309 91 ft 4 kts 102°
2026-05-05 13:58 51.47190 -0.48340 91 ft 4 kts 139°
2026-05-05 13:58 51.47211 -0.48358 91 ft 4 kts 170°
2026-05-05 13:58 51.47231 -0.48360 92 ft 0 kts 179°
2026-05-05 14:00 51.47223 -0.48360 90 ft 4 kts 179°
2026-05-05 14:00 51.47165 -0.48359 90 ft 11 kts 179°
2026-05-05 14:01 51.47073 -0.48357 93 ft 15 kts 179°
2026-05-05 14:01 51.46967 -0.48356 93 ft 15 kts 180°
2026-05-05 14:01 51.46862 -0.48356 93 ft 14 kts 180°
2026-05-05 14:01 51.46773 -0.48359 93 ft 8 kts 189°
2026-05-05 14:02 51.46744 -0.48414 92 ft 7 kts 257°
2026-05-05 14:02 51.46741 -0.48533 90 ft 15 kts 267°
2026-05-05 14:02 51.46730 -0.48710 94 ft 14 kts 243°
2026-05-05 14:02 51.46658 -0.48744 94 ft 10 kts 178°
2026-05-05 14:03 51.46586 -0.48777 92 ft 12 kts 200°
2026-05-05 14:03 51.46500 -0.48756 94 ft 12 kts 138°
2026-05-05 14:03 51.46477 -0.48640 94 ft 11 kts 90°
2026-05-05 14:03 51.46477 -0.48600 94 ft 0 kts 89°
2026-05-05 14:04 51.46478 -0.48465 92 ft 41 kts 89°
2026-05-05 14:04 51.46481 -0.47569 86 ft 119 kts 90°
2026-05-05 14:04 51.46487 -0.45880 135 ft 179 kts 91°
2026-05-05 14:04 51.46445 -0.43916 1091 ft 174 kts 92°
2026-05-05 14:05 51.46403 -0.41975 2103 ft 171 kts 85°
2026-05-05 14:05 51.46740 -0.40217 2877 ft 171 kts 49°
2026-05-05 14:05 51.47596 -0.38820 3564 ft 179 kts 43°
2026-05-05 14:05 51.48474 -0.37443 4514 ft 169 kts 43°
2026-05-05 14:06 51.49293 -0.36260 5504 ft 151 kts 39°
2026-05-05 14:06 51.50085 -0.35104 5975 ft 164 kts 47°
2026-05-05 14:06 51.50641 -0.33294 6176 ft 195 kts 67°
2026-05-05 14:06 51.51199 -0.31190 6650 ft 218 kts 65°
2026-05-05 14:07 51.51841 -0.28773 7089 ft 247 kts 65°
2026-05-05 14:07 51.52543 -0.26140 7559 ft 270 kts 66°
2026-05-05 14:07 51.53298 -0.23325 8528 ft 273 kts 65°
2026-05-05 14:07 51.54078 -0.20500 9444 ft 279 kts 60°
2026-05-05 14:08 51.55431 -0.18341 10287 ft 283 kts 26°
2026-05-05 14:08 51.57416 -0.17646 10754 ft 305 kts 354°
2026-05-05 14:08 51.59543 -0.18568 11104 ft 329 kts 338°
2026-05-05 14:08 51.61643 -0.20172 11781 ft 339 kts 333°
2026-05-05 14:09 51.63743 -0.21991 12723 ft 344 kts 331°
2026-05-05 14:09 51.65859 -0.23892 13569 ft 351 kts 331°
2026-05-05 14:09 51.67977 -0.25846 14373 ft 355 kts 328°
2026-05-05 14:09 51.70023 -0.28164 15129 ft 360 kts 323°
2026-05-05 14:10 51.71995 -0.30624 15917 ft 364 kts 323°
2026-05-05 14:10 51.74077 -0.33040 16686 ft 369 kts 326°
2026-05-05 14:10 51.76196 -0.35376 17431 ft 373 kts 325°
2026-05-05 14:10 51.78347 -0.37804 18152 ft 378 kts 324°
2026-05-05 14:11 51.80504 -0.40306 18819 ft 382 kts 324°
2026-05-05 14:11 51.82650 -0.42783 19500 ft 385 kts 323°
2026-05-05 14:11 51.84858 -0.45309 20147 ft 388 kts 323°
2026-05-05 14:11 51.87077 -0.47850 20785 ft 391 kts 323°
2026-05-05 14:12 51.89308 -0.50420 21412 ft 395 kts 323°
2026-05-05 14:12 51.91538 -0.52994 22009 ft 398 kts 322°
2026-05-05 14:12 51.93791 -0.55592 22584 ft 401 kts 322°
2026-05-05 14:12 51.96086 -0.58240 23172 ft 404 kts 322°
2026-05-05 14:13 51.98371 -0.60883 23700 ft 408 kts 322°
2026-05-05 14:13 52.00689 -0.63569 24162 ft 411 kts 322°
2026-05-05 14:13 52.02247 -0.65375 24434 ft 414 kts 322°
2026-05-05 14:13 52.05380 -0.69010 25003 ft 419 kts 321°
2026-05-05 14:14 52.07761 -0.71777 25423 ft 422 kts 321°
2026-05-05 14:14 52.09355 -0.73634 25702 ft 424 kts 321°
2026-05-05 14:14 52.11764 -0.76443 26089 ft 428 kts 321°
2026-05-05 14:14 52.14203 -0.79287 26488 ft 431 kts 321°
2026-05-05 14:15 52.17465 -0.83098 26994 ft 435 kts 321°
2026-05-05 14:15 52.19106 -0.85019 27242 ft 437 kts 321°
2026-05-05 14:15 52.21592 -0.87931 27615 ft 441 kts 321°
2026-05-05 14:15 52.24077 -0.90847 27978 ft 444 kts 321°
2026-05-05 14:16 52.26601 -0.93813 28347 ft 447 kts 321°
2026-05-05 14:16 52.29108 -0.96761 28719 ft 449 kts 321°
2026-05-05 14:16 52.31650 -0.99757 29121 ft 451 kts 321°
2026-05-05 14:16 52.34207 -1.02774 29554 ft 452 kts 321°
2026-05-05 14:17 52.36738 -1.05765 29882 ft 455 kts 321°
2026-05-05 14:17 52.39320 -1.08822 30200 ft 457 kts 321°
2026-05-05 14:17 52.41909 -1.11890 30514 ft 459 kts 321°
2026-05-05 14:17 52.44508 -1.14974 30817 ft 461 kts 321°
2026-05-05 14:18 52.47082 -1.18034 31111 ft 463 kts 321°
2026-05-05 14:18 52.49699 -1.21150 31405 ft 464 kts 321°
2026-05-05 14:18 52.52323 -1.24279 31712 ft 466 kts 322°
2026-05-05 14:18 52.54950 -1.27416 32012 ft 467 kts 322°
2026-05-05 14:19 52.57562 -1.30538 32291 ft 469 kts 322°
2026-05-05 14:19 52.60220 -1.33722 32579 ft 471 kts 322°
2026-05-05 14:19 52.62870 -1.36901 32840 ft 473 kts 322°
2026-05-05 14:19 52.65519 -1.40083 33088 ft 475 kts 322°
2026-05-05 14:20 52.68210 -1.43322 33354 ft 476 kts 322°
2026-05-05 14:20 52.70863 -1.46519 33598 ft 478 kts 322°
2026-05-05 14:20 52.73570 -1.49786 33818 ft 480 kts 322°
2026-05-05 14:20 52.76276 -1.53060 34023 ft 482 kts 323°
2026-05-05 14:21 52.78993 -1.56349 34172 ft 484 kts 323°
2026-05-05 14:21 52.81686 -1.59611 34436 ft 484 kts 323°
2026-05-05 14:21 52.84419 -1.62930 34680 ft 484 kts 323°
2026-05-05 14:21 52.87101 -1.66195 35014 ft 483 kts 323°
2026-05-05 14:22 52.89814 -1.69501 35291 ft 482 kts 323°
2026-05-05 14:22 52.92525 -1.72809 35584 ft 482 kts 323°
2026-05-05 14:22 52.95225 -1.76109 35858 ft 481 kts 323°
2026-05-05 14:22 52.97896 -1.79380 35982 ft 484 kts 322°
2026-05-05 14:23 53.03299 -1.86010 35989 ft 480 kts 322°
2026-05-05 14:23 53.08658 -1.92609 35988 ft 478 kts 322°
2026-05-05 14:24 53.14017 -1.99225 36000 ft 478 kts 322°
2026-05-05 14:24 53.19333 -2.05813 36009 ft 477 kts 322°
2026-05-05 14:25 53.24673 -2.12448 36017 ft 477 kts 322°
2026-05-05 14:25 53.29973 -2.19058 36016 ft 477 kts 322°
2026-05-05 14:26 53.34797 -2.26565 36043 ft 473 kts 304°
2026-05-05 14:26 53.36476 -2.31216 36050 ft 472 kts 293°
2026-05-05 14:26 53.37642 -2.36392 36046 ft 471 kts 287°
2026-05-05 14:27 53.39635 -2.46810 36024 ft 472 kts 287°
2026-05-05 14:27 53.41618 -2.57337 36026 ft 472 kts 287°
2026-05-05 14:28 53.43584 -2.67759 36017 ft 467 kts 287°
2026-05-05 14:28 53.45523 -2.78142 36022 ft 465 kts 286°
2026-05-05 14:29 53.47448 -2.88479 36036 ft 468 kts 286°
2026-05-05 14:29 53.49387 -2.98966 36046 ft 471 kts 286°
2026-05-05 14:30 53.51311 -3.09409 36046 ft 467 kts 286°
2026-05-05 14:30 53.53216 -3.19825 36049 ft 468 kts 286°
2026-05-05 14:31 53.55131 -3.30342 36050 ft 469 kts 286°
2026-05-05 14:31 53.57023 -3.40800 36041 ft 470 kts 286°
2026-05-05 14:32 53.58915 -3.51319 36046 ft 469 kts 286°
2026-05-05 14:32 53.60780 -3.61757 36038 ft 467 kts 286°
2026-05-05 14:33 53.61865 -3.72533 36040 ft 467 kts 274°
2026-05-05 14:33 53.62301 -3.83419 36051 ft 468 kts 273°
2026-05-05 14:34 53.62746 -3.94383 36047 ft 468 kts 273°
2026-05-05 14:34 53.63186 -4.05288 36048 ft 468 kts 273°
2026-05-05 14:35 53.63617 -4.16249 36052 ft 468 kts 273°
2026-05-05 14:35 53.64020 -4.27135 36046 ft 464 kts 273°
2026-05-05 14:36 53.64427 -4.38016 36051 ft 464 kts 273°
2026-05-05 14:36 53.64829 -4.48836 36047 ft 464 kts 273°
2026-05-05 14:37 53.65208 -4.59718 36066 ft 464 kts 272°
2026-05-05 14:37 53.65581 -4.70483 36064 ft 462 kts 272°
2026-05-05 14:38 53.65942 -4.81310 36068 ft 461 kts 272°
2026-05-05 14:38 53.66295 -4.92121 36065 ft 462 kts 272°
2026-05-05 14:39 53.66638 -5.02912 36069 ft 463 kts 272°
2026-05-05 14:39 53.66972 -5.13769 36071 ft 464 kts 272°
2026-05-05 14:40 53.67294 -5.24684 36072 ft 465 kts 272°
2026-05-05 14:40 53.67604 -5.35539 36073 ft 464 kts 272°
2026-05-05 14:41 53.67903 -5.46368 36066 ft 464 kts 272°
2026-05-05 14:41 53.68535 -5.57211 36074 ft 463 kts 277°
2026-05-05 14:42 53.69313 -5.67995 36078 ft 464 kts 276°
2026-05-05 14:42 53.70092 -5.78824 36077 ft 464 kts 276°
2026-05-05 14:43 53.70856 -5.89623 36075 ft 464 kts 276°
2026-05-05 14:43 53.71614 -6.00459 36079 ft 464 kts 276°
2026-05-05 14:44 53.72358 -6.11252 36073 ft 464 kts 276°
2026-05-05 14:44 53.73093 -6.22056 36073 ft 464 kts 276°
2026-05-05 14:45 53.73822 -6.32914 36078 ft 464 kts 276°
2026-05-05 14:45 53.74540 -6.43762 36078 ft 465 kts 276°
2026-05-05 14:46 53.75245 -6.54561 36070 ft 465 kts 276°
2026-05-05 14:46 53.75944 -6.65430 36077 ft 465 kts 276°
2026-05-05 14:47 53.76633 -6.76296 36068 ft 465 kts 276°
2026-05-05 14:47 53.77313 -6.87171 36072 ft 464 kts 276°
2026-05-05 14:48 53.77982 -6.98033 36071 ft 464 kts 276°
2026-05-05 14:48 53.78636 -7.08825 36072 ft 463 kts 276°
2026-05-05 14:49 53.79283 -7.19649 36071 ft 462 kts 275°
2026-05-05 14:49 53.79920 -7.30474 36073 ft 462 kts 275°
2026-05-05 14:50 53.80547 -7.41311 36067 ft 463 kts 275°
2026-05-05 14:50 53.81162 -7.52108 36078 ft 464 kts 275°
2026-05-05 14:51 53.81772 -7.62988 36075 ft 464 kts 275°
2026-05-05 14:51 53.82369 -7.73817 36075 ft 464 kts 275°
2026-05-05 14:52 53.82958 -7.84677 36078 ft 463 kts 275°
2026-05-05 14:52 53.83538 -7.95545 36071 ft 463 kts 275°
2026-05-05 14:53 53.84107 -8.06409 36069 ft 462 kts 275°
2026-05-05 14:53 53.84661 -8.17179 36070 ft 462 kts 275°
2026-05-05 14:54 53.85209 -8.28019 36068 ft 461 kts 275°
2026-05-05 14:54 53.85747 -8.38843 36073 ft 462 kts 275°
2026-05-05 14:55 53.86276 -8.49711 36089 ft 462 kts 274°
2026-05-05 14:55 53.86794 -8.60550 36093 ft 463 kts 274°
2026-05-05 14:56 53.87301 -8.71352 36095 ft 462 kts 274°
2026-05-05 14:56 53.87801 -8.82220 36095 ft 462 kts 274°
2026-05-05 14:57 53.88290 -8.93057 36103 ft 462 kts 274°
2026-05-05 14:57 53.88769 -9.03908 36091 ft 462 kts 274°
2026-05-05 14:58 53.89239 -9.14766 36094 ft 462 kts 274°
2026-05-05 14:58 53.89698 -9.25618 36111 ft 461 kts 274°
2026-05-05 14:59 53.90147 -9.36452 36106 ft 460 kts 274°
2026-05-05 14:59 53.90589 -9.47344 36109 ft 462 kts 274°
2026-05-05 15:00 53.90946 -9.56358 36116 ft 461 kts 274°
2026-05-05 15:00 53.91438 -9.69022 36123 ft 461 kts 274°
2026-05-05 15:01 53.91847 -9.79847 36125 ft 461 kts 274°
2026-05-05 15:01 53.92246 -9.90653 36135 ft 461 kts 274°
2026-05-05 15:02 53.92636 -10.01502 36130 ft 461 kts 274°
2026-05-05 15:02 53.93016 -10.12341 36132 ft 460 kts 274°
2026-05-05 15:03 53.93388 -10.23224 36136 ft 460 kts 274°
2026-05-05 15:03 53.93748 -10.34038 36141 ft 460 kts 273°
2026-05-05 15:04 53.94098 -10.44846 36143 ft 459 kts 273°
2026-05-05 15:04 53.94437 -10.55645 36141 ft 459 kts 273°
2026-05-05 15:05 53.94930 -10.71885 36133 ft 457 kts 273°
2026-05-05 15:06 53.95194 -10.80901 36136 ft 458 kts 273°
2026-05-05 15:06 53.95500 -10.91659 36139 ft 459 kts 273°
2026-05-05 15:07 53.95799 -11.02494 36153 ft 461 kts 273°
2026-05-05 15:07 53.96088 -11.13348 36157 ft 461 kts 273°
2026-05-05 15:08 53.96369 -11.24263 36150 ft 459 kts 272°
2026-05-05 15:08 53.96636 -11.35013 36154 ft 458 kts 272°
2026-05-05 15:09 53.96896 -11.45856 36156 ft 457 kts 272°
2026-05-05 15:09 53.97143 -11.56579 36156 ft 457 kts 272°
2026-05-05 15:10 53.97382 -11.67372 36147 ft 458 kts 272°
2026-05-05 15:10 53.97613 -11.78256 36159 ft 459 kts 272°
2026-05-05 15:11 53.97833 -11.89100 36167 ft 459 kts 272°
2026-05-05 15:11 53.98044 -11.99938 36170 ft 460 kts 272°
2026-05-05 15:12 53.98245 -12.10796 36168 ft 460 kts 272°
2026-05-05 15:12 53.98436 -12.21631 36168 ft 459 kts 272°
2026-05-05 15:13 53.98618 -12.32479 36170 ft 459 kts 272°
2026-05-05 15:13 53.98789 -12.43294 36161 ft 458 kts 271°
2026-05-05 15:14 53.98950 -12.54101 36167 ft 458 kts 271°
2026-05-05 15:14 53.99102 -12.64893 36166 ft 458 kts 271°
2026-05-05 15:15 53.99245 -12.75759 36173 ft 458 kts 271°
2026-05-05 15:15 53.99377 -12.86562 36170 ft 458 kts 271°
2026-05-05 15:16 53.99500 -12.97379 36176 ft 458 kts 271°
2026-05-05 15:16 53.99612 -13.08197 36176 ft 459 kts 271°
2026-05-05 15:17 53.99715 -13.19001 36183 ft 459 kts 271°
2026-05-05 15:17 53.99810 -13.29917 36183 ft 459 kts 271°
2026-05-05 15:18 53.99893 -13.40732 36178 ft 458 kts 271°
2026-05-05 15:18 53.99967 -13.51530 36185 ft 457 kts 271°
2026-05-05 15:19 54.00031 -13.62287 36191 ft 456 kts 271°
2026-05-05 15:19 54.00085 -13.73049 36183 ft 457 kts 270°
2026-05-05 15:20 54.00131 -13.83901 36192 ft 458 kts 270°
2026-05-05 15:20 54.00166 -13.94713 36196 ft 459 kts 270°
2026-05-05 15:21 54.00192 -14.05570 36200 ft 459 kts 270°
2026-05-05 15:21 54.00207 -14.16391 36205 ft 458 kts 270°
2026-05-05 15:22 54.00213 -14.27174 36202 ft 457 kts 270°
2026-05-05 15:22 54.00209 -14.37946 36192 ft 456 kts 270°
2026-05-05 15:23 54.00196 -14.48775 36198 ft 455 kts 270°
2026-05-05 15:23 54.00173 -14.59524 36189 ft 457 kts 270°
2026-05-05 15:24 54.00141 -14.70341 36195 ft 459 kts 270°
2026-05-05 15:24 54.00098 -14.81239 36203 ft 459 kts 270°
2026-05-05 15:25 54.00047 -14.91887 36199 ft 457 kts 270°
2026-05-05 15:25 54.00682 -15.02567 36280 ft 458 kts 287°
2026-05-05 15:25 54.01728 -15.07641 36469 ft 459 kts 290°
2026-05-05 15:26 54.02862 -15.12736 36685 ft 459 kts 290°
2026-05-05 15:26 54.03997 -15.17766 36902 ft 460 kts 290°
2026-05-05 15:26 54.05145 -15.22862 37132 ft 461 kts 290°
2026-05-05 15:26 54.06282 -15.27965 37344 ft 461 kts 290°
2026-05-05 15:27 54.07420 -15.33095 37561 ft 462 kts 290°
2026-05-05 15:27 54.08560 -15.38226 37771 ft 463 kts 290°
2026-05-05 15:27 54.09699 -15.43355 37982 ft 463 kts 290°
2026-05-05 15:27 54.10822 -15.48437 38190 ft 464 kts 290°
2026-05-05 15:28 54.11964 -15.53619 38205 ft 468 kts 291°
2026-05-05 15:28 54.14248 -15.64017 38198 ft 465 kts 290°
2026-05-05 15:29 54.16495 -15.74296 38199 ft 463 kts 290°
2026-05-05 15:29 54.18738 -15.84606 38200 ft 462 kts 290°
2026-05-05 15:30 54.20963 -15.94890 38214 ft 462 kts 290°
2026-05-05 15:30 54.23188 -16.05222 38211 ft 463 kts 290°
2026-05-05 15:31 54.25388 -16.15490 38205 ft 463 kts 290°
2026-05-05 15:31 54.27599 -16.25864 38210 ft 463 kts 290°
2026-05-05 15:32 54.29793 -16.36207 38212 ft 464 kts 290°
2026-05-05 15:32 54.31982 -16.46585 38213 ft 464 kts 290°
2026-05-05 15:33 54.34171 -16.57011 38216 ft 464 kts 290°
2026-05-05 15:33 54.36350 -16.67446 38219 ft 464 kts 290°
2026-05-05 15:34 54.38505 -16.77822 38223 ft 464 kts 290°
2026-05-05 15:34 54.40659 -16.88244 38223 ft 464 kts 290°
2026-05-05 15:35 54.42812 -16.98715 38228 ft 464 kts 290°
2026-05-05 15:35 54.44941 -17.09124 38227 ft 463 kts 290°
2026-05-05 15:36 54.47076 -17.19620 38226 ft 463 kts 290°
2026-05-05 15:36 54.49189 -17.30065 38225 ft 463 kts 290°
2026-05-05 15:37 54.51290 -17.40500 38224 ft 463 kts 290°
2026-05-05 15:37 54.53383 -17.50955 38233 ft 463 kts 290°
2026-05-05 15:38 54.55479 -17.61479 38236 ft 465 kts 290°
2026-05-05 15:38 54.57570 -17.72037 38238 ft 466 kts 290°
2026-05-05 15:39 54.59657 -17.82629 38236 ft 465 kts 290°
2026-05-05 15:39 54.61718 -17.93146 38233 ft 464 kts 289°
2026-05-05 15:40 54.63769 -18.03671 38228 ft 463 kts 289°
2026-05-05 15:40 54.65819 -18.14249 38227 ft 464 kts 289°
2026-05-05 15:41 54.67857 -18.24823 38243 ft 467 kts 289°
2026-05-05 15:41 54.69904 -18.35507 38235 ft 466 kts 289°
2026-05-05 15:42 54.71926 -18.46110 38232 ft 465 kts 289°
2026-05-05 15:42 54.73939 -18.56730 38226 ft 463 kts 289°
2026-05-05 15:43 54.75936 -18.67327 38232 ft 464 kts 289°
2026-05-05 15:43 54.77924 -18.77933 38228 ft 465 kts 289°
2026-05-05 15:44 54.79920 -18.88644 38237 ft 467 kts 289°
2026-05-05 15:44 54.81899 -18.99328 38236 ft 468 kts 289°
2026-05-05 15:45 54.83875 -19.10051 38239 ft 465 kts 289°
2026-05-05 15:45 54.85836 -19.20756 38243 ft 465 kts 289°
2026-05-05 15:46 54.87786 -19.31460 38236 ft 465 kts 289°
2026-05-05 15:46 54.89718 -19.42132 38241 ft 464 kts 289°
2026-05-05 15:47 54.91653 -19.52881 38236 ft 466 kts 289°
2026-05-05 15:47 54.93587 -19.63686 38245 ft 468 kts 289°
2026-05-05 15:48 54.95496 -19.74417 38247 ft 467 kts 288°
2026-05-05 15:48 54.97408 -19.85231 38240 ft 465 kts 289°
2026-05-05 15:49 54.99299 -19.95987 38238 ft 463 kts 288°
2026-05-05 15:49 55.00296 -20.07083 38241 ft 468 kts 276°
2026-05-05 15:50 55.00740 -20.18361 38250 ft 470 kts 276°
2026-05-05 15:50 55.01187 -20.29729 38245 ft 470 kts 276°
2026-05-05 15:51 55.01621 -20.41093 38250 ft 470 kts 276°
2026-05-05 15:51 55.02039 -20.52319 38246 ft 470 kts 276°
2026-05-05 15:52 55.02452 -20.63692 38250 ft 469 kts 276°
2026-05-05 15:52 55.02851 -20.74976 38239 ft 469 kts 276°
2026-05-05 15:53 55.03243 -20.86354 38234 ft 469 kts 276°
2026-05-05 15:53 55.03623 -20.97712 38242 ft 470 kts 276°
2026-05-05 15:54 55.03993 -21.09052 38250 ft 472 kts 276°
2026-05-05 15:54 55.04354 -21.20503 38249 ft 472 kts 276°
2026-05-05 15:55 55.04704 -21.31923 38248 ft 471 kts 276°
2026-05-05 15:55 55.05044 -21.43330 38249 ft 471 kts 276°
2026-05-05 15:56 55.05371 -21.54700 38248 ft 471 kts 275°
2026-05-05 15:56 55.05691 -21.66173 38249 ft 472 kts 275°
2026-05-05 15:57 55.05998 -21.77568 38244 ft 472 kts 275°
2026-05-05 15:57 55.06246 -21.87122 38235 ft 472 kts 275°
2026-05-05 15:58 55.06534 -21.98549 38243 ft 472 kts 275°
2026-05-05 15:58 55.06811 -22.09972 38242 ft 472 kts 275°
2026-05-05 15:59 55.07079 -22.21469 38242 ft 472 kts 275°
2026-05-05 15:59 55.07335 -22.32896 38242 ft 472 kts 275°
2026-05-05 16:00 55.07580 -22.44327 38244 ft 472 kts 275°
2026-05-05 16:00 55.07813 -22.55732 38255 ft 471 kts 275°
2026-05-05 16:01 55.08039 -22.67223 38259 ft 472 kts 275°
2026-05-05 16:01 55.08252 -22.78671 38265 ft 474 kts 275°
2026-05-05 16:02 55.08454 -22.90129 38265 ft 473 kts 275°
2026-05-05 16:02 55.08646 -23.01635 38259 ft 471 kts 275°
2026-05-05 16:03 55.08826 -23.13054 38243 ft 470 kts 275°
2026-05-05 16:03 55.08996 -23.24443 38252 ft 470 kts 275°
2026-05-05 16:04 55.09154 -23.35842 38262 ft 471 kts 274°
2026-05-05 16:04 55.09303 -23.47289 38267 ft 471 kts 274°
2026-05-05 16:05 55.09440 -23.58683 38255 ft 472 kts 274°
2026-05-05 16:05 55.09567 -23.70153 38265 ft 472 kts 274°
2026-05-05 16:06 55.09685 -23.81631 38265 ft 473 kts 274°
2026-05-05 16:06 55.09790 -23.93139 38270 ft 475 kts 274°
2026-05-05 16:07 55.09885 -24.04657 38271 ft 474 kts 274°
2026-05-05 16:07 55.09969 -24.16072 38271 ft 472 kts 274°
2026-05-05 16:08 55.10043 -24.27524 38241 ft 471 kts 274°
2026-05-05 16:08 55.10106 -24.38957 38257 ft 471 kts 274°
2026-05-05 16:09 55.10158 -24.50426 38263 ft 473 kts 274°
2026-05-05 16:09 55.10199 -24.61939 38269 ft 474 kts 274°
2026-05-05 16:10 55.10229 -24.73468 38271 ft 474 kts 274°
2026-05-05 16:10 55.10248 -24.84887 38264 ft 472 kts 274°
2026-05-05 16:11 55.10257 -24.96331 38263 ft 470 kts 274°
2026-05-05 16:12 55.10243 -25.19175 38270 ft 472 kts 274°
2026-05-05 16:13 55.10164 -25.47895 38251 ft 473 kts 273°
2026-05-05 16:13 55.10114 -25.59362 38274 ft 472 kts 273°
2026-05-05 16:14 55.09981 -25.82275 38272 ft 471 kts 273°
2026-05-05 16:15 55.09805 -26.05130 38276 ft 471 kts 273°
2026-05-05 16:16 55.09588 -26.27974 38286 ft 472 kts 272°
2026-05-05 16:17 55.09395 -26.45160 38294 ft 473 kts 272°
2026-05-05 16:18 55.09178 -26.62333 38280 ft 471 kts 272°
2026-05-05 16:19 55.08939 -26.79443 38282 ft 470 kts 272°
2026-05-05 16:19 55.08675 -26.96575 38290 ft 472 kts 272°
2026-05-05 16:20 55.08284 -27.19519 38297 ft 472 kts 272°
2026-05-05 16:22 55.07738 -27.47997 38278 ft 468 kts 271°
2026-05-05 16:23 55.07256 -27.70717 38284 ft 470 kts 271°
2026-05-05 16:23 55.06864 -27.87807 38296 ft 472 kts 271°
2026-05-05 16:24 55.06589 -27.99186 38288 ft 469 kts 271°
2026-05-05 16:25 55.06159 -28.16256 38279 ft 468 kts 271°
2026-05-05 16:25 55.05707 -28.33228 38286 ft 468 kts 271°
2026-05-05 16:26 55.05067 -28.55865 38293 ft 467 kts 271°
2026-05-05 16:27 55.04731 -28.67206 38292 ft 467 kts 270°
2026-05-05 16:27 55.04385 -28.78497 38290 ft 466 kts 270°
2026-05-05 16:28 55.04030 -28.89764 38291 ft 467 kts 270°
2026-05-05 16:28 55.03662 -29.01095 38294 ft 468 kts 270°
2026-05-05 16:29 55.03283 -29.12437 38302 ft 469 kts 270°
2026-05-05 16:29 55.02894 -29.23777 38302 ft 470 kts 270°
2026-05-05 16:30 55.02496 -29.35061 38295 ft 468 kts 270°
2026-05-05 16:30 55.02085 -29.46403 38291 ft 467 kts 270°
2026-05-05 16:31 55.01667 -29.57665 38288 ft 466 kts 270°
2026-05-05 16:31 55.01239 -29.68912 38288 ft 467 kts 269°
2026-05-05 16:32 55.00800 -29.80163 38286 ft 466 kts 269°
2026-05-05 16:32 55.00350 -29.91434 38300 ft 467 kts 269°
2026-05-05 16:33 55.00112 -30.02669 38320 ft 462 kts 277°
2026-05-05 16:33 55.00560 -30.13846 38291 ft 464 kts 277°
2026-05-05 16:34 55.01008 -30.25100 38292 ft 464 kts 277°
2026-05-05 16:34 55.01440 -30.36319 38283 ft 464 kts 276°
2026-05-05 16:35 55.01861 -30.47505 38279 ft 463 kts 276°
2026-05-05 16:35 55.02271 -30.58666 38278 ft 463 kts 276°
2026-05-05 16:36 55.02672 -30.69884 38279 ft 463 kts 276°
2026-05-05 16:36 55.03062 -30.81056 38273 ft 463 kts 276°
2026-05-05 16:37 55.03443 -30.92280 38292 ft 463 kts 275°
2026-05-05 16:37 55.03812 -31.03460 38267 ft 467 kts 274°
2026-05-05 16:38 55.04175 -31.14791 38273 ft 469 kts 274°
2026-05-05 16:38 55.04529 -31.26134 38270 ft 469 kts 274°
2026-05-05 16:39 55.04871 -31.37474 38283 ft 469 kts 274°
2026-05-05 16:39 55.05203 -31.48820 38272 ft 468 kts 274°
2026-05-05 16:40 55.05524 -31.60144 38268 ft 468 kts 274°
2026-05-05 16:40 55.05836 -31.71477 38269 ft 469 kts 273°
2026-05-05 16:41 55.06135 -31.82817 38261 ft 470 kts 273°
2026-05-05 16:41 55.06427 -31.94200 38265 ft 468 kts 273°
2026-05-05 16:42 55.06706 -32.05558 38265 ft 469 kts 273°
2026-05-05 16:42 55.06976 -32.16955 38267 ft 469 kts 273°
2026-05-05 16:43 55.07233 -32.28266 38262 ft 469 kts 272°
2026-05-05 16:43 55.07483 -32.39725 38256 ft 470 kts 271°
2026-05-05 16:44 55.07719 -32.51075 38256 ft 469 kts 271°
2026-05-05 16:44 55.07947 -32.62473 38253 ft 470 kts 271°
2026-05-05 16:45 55.08162 -32.73804 38253 ft 469 kts 271°
2026-05-05 16:45 55.08369 -32.85238 38255 ft 471 kts 271°
2026-05-05 16:46 55.08565 -32.96675 38253 ft 470 kts 271°
2026-05-05 16:46 55.08750 -33.08059 38248 ft 475 kts 270°
2026-05-05 16:47 55.08925 -33.19593 38243 ft 474 kts 270°
2026-05-05 16:47 55.09091 -33.31122 38248 ft 474 kts 270°
2026-05-05 16:48 55.09244 -33.42639 38239 ft 473 kts 270°
2026-05-05 16:48 55.09386 -33.54067 38237 ft 474 kts 270°
2026-05-05 16:49 55.09518 -33.65591 38240 ft 473 kts 270°
2026-05-05 16:49 55.09639 -33.77067 38233 ft 477 kts 269°
2026-05-05 16:50 55.09732 -33.86704 38230 ft 478 kts 269°
2026-05-05 16:50 55.09835 -33.98312 38225 ft 478 kts 269°
2026-05-05 16:51 55.09926 -34.09936 38208 ft 478 kts 269°
2026-05-05 16:51 55.10006 -34.21546 38214 ft 477 kts 269°
2026-05-05 16:52 55.10075 -34.33092 38216 ft 478 kts 268°
2026-05-05 16:52 55.10133 -34.44764 38203 ft 481 kts 268°
2026-05-05 16:53 55.10181 -34.56393 38199 ft 481 kts 268°
2026-05-05 16:53 55.10216 -34.68089 38198 ft 481 kts 268°
2026-05-05 16:54 55.10242 -34.79736 38195 ft 481 kts 268°
2026-05-05 16:54 55.10255 -34.91458 38193 ft 482 kts 268°
2026-05-05 16:55 55.10259 -35.03162 38183 ft 482 kts 267°
2026-05-05 16:55 55.10249 -35.14929 38182 ft 484 kts 267°
2026-05-05 16:56 55.10230 -35.26641 38180 ft 483 kts 267°
2026-05-05 16:56 55.10198 -35.38326 38179 ft 482 kts 266°
2026-05-05 16:57 55.10155 -35.50084 38173 ft 482 kts 266°
2026-05-05 16:57 55.10102 -35.61784 38163 ft 482 kts 266°
2026-05-05 16:58 55.10037 -35.73491 38173 ft 483 kts 266°
2026-05-05 16:58 55.09960 -35.85271 38166 ft 485 kts 266°
2026-05-05 16:59 55.09873 -35.97009 38166 ft 485 kts 266°
2026-05-05 16:59 55.09774 -36.08765 38159 ft 485 kts 266°
2026-05-05 17:00 55.09663 -36.20542 38159 ft 485 kts 266°
2026-05-05 17:00 55.09541 -36.32315 38156 ft 485 kts 266°
2026-05-05 17:01 55.09408 -36.44094 38148 ft 486 kts 265°
2026-05-05 17:01 55.09263 -36.55883 38150 ft 487 kts 265°
2026-05-05 17:02 55.09107 -36.67679 38132 ft 488 kts 265°
2026-05-05 17:02 55.08937 -36.79608 38137 ft 489 kts 265°
2026-05-05 17:03 55.08758 -36.91382 38130 ft 487 kts 265°
2026-05-05 17:03 55.08566 -37.03246 38123 ft 487 kts 265°
2026-05-05 17:04 55.08363 -37.15080 38120 ft 489 kts 265°
2026-05-05 17:04 55.08149 -37.26941 38122 ft 490 kts 265°
2026-05-05 17:05 55.07922 -37.38824 38127 ft 490 kts 265°
2026-05-05 17:05 55.07684 -37.50672 38119 ft 490 kts 265°
2026-05-05 17:06 55.07433 -37.62600 38114 ft 490 kts 264°
2026-05-05 17:06 55.07171 -37.74494 38108 ft 492 kts 264°
2026-05-05 17:07 55.06898 -37.86404 38110 ft 492 kts 264°
2026-05-05 17:07 55.06612 -37.98314 38106 ft 491 kts 264°
2026-05-05 17:08 55.06315 -38.10201 38106 ft 491 kts 264°
2026-05-05 17:08 55.06006 -38.22112 38096 ft 490 kts 264°
2026-05-05 17:09 55.05688 -38.33950 38118 ft 489 kts 264°
2026-05-05 17:09 55.05358 -38.45771 38079 ft 488 kts 263°
2026-05-05 17:10 55.05017 -38.57593 38099 ft 489 kts 263°
2026-05-05 17:10 55.04662 -38.69485 38102 ft 492 kts 263°
2026-05-05 17:11 55.04295 -38.81424 38092 ft 492 kts 263°
2026-05-05 17:11 55.03916 -38.93319 38090 ft 491 kts 263°
2026-05-05 17:12 55.03527 -39.05193 38091 ft 491 kts 263°
2026-05-05 17:12 55.03127 -39.17043 38088 ft 490 kts 263°
2026-05-05 17:13 55.02715 -39.28896 38088 ft 489 kts 263°
2026-05-05 17:13 55.02293 -39.40719 38079 ft 488 kts 263°
2026-05-05 17:14 55.01859 -39.52532 38079 ft 490 kts 263°
2026-05-05 17:14 55.01412 -39.64419 38084 ft 491 kts 263°
2026-05-05 17:15 55.00952 -39.76305 38085 ft 491 kts 263°
2026-05-05 17:15 55.00483 -39.88161 38080 ft 490 kts 263°
2026-05-05 17:16 55.00002 -39.99923 38075 ft 488 kts 261°
2026-05-05 17:16 54.99319 -40.11654 38085 ft 489 kts 261°
2026-05-05 17:17 54.98649 -40.23493 38088 ft 490 kts 261°
2026-05-05 17:17 54.97931 -40.35307 38082 ft 491 kts 261°
2026-05-05 17:18 54.97237 -40.46994 38062 ft 488 kts 260°
2026-05-05 17:18 54.96507 -40.58752 38074 ft 490 kts 261°
2026-05-05 17:19 54.95774 -40.70576 38071 ft 490 kts 260°
2026-05-05 17:19 54.95024 -40.82361 38073 ft 490 kts 260°
2026-05-05 17:20 54.94267 -40.94144 38064 ft 490 kts 260°
2026-05-05 17:20 54.93497 -41.05924 38063 ft 489 kts 260°
2026-05-05 17:21 54.92723 -41.17593 38059 ft 487 kts 260°
2026-05-05 17:22 54.91536 -41.35142 38054 ft 488 kts 260°
2026-05-05 17:22 54.90732 -41.46837 38063 ft 490 kts 259°
2026-05-05 17:23 54.89909 -41.58619 38060 ft 491 kts 259°
2026-05-05 17:23 54.89075 -41.70411 38043 ft 490 kts 259°
2026-05-05 17:24 54.88233 -41.82124 38043 ft 489 kts 259°
2026-05-05 17:24 54.87382 -41.93825 38040 ft 488 kts 259°
2026-05-05 17:25 54.86521 -42.05486 38036 ft 488 kts 259°
2026-05-05 17:25 54.85646 -42.17194 38029 ft 488 kts 259°
2026-05-05 17:26 54.84760 -42.28883 38029 ft 488 kts 259°
2026-05-05 17:26 54.83871 -42.40472 38026 ft 488 kts 259°
2026-05-05 17:27 54.82962 -42.52155 38030 ft 490 kts 259°
2026-05-05 17:27 54.82035 -42.63937 38028 ft 492 kts 259°
2026-05-05 17:28 54.81100 -42.75652 38027 ft 492 kts 258°
2026-05-05 17:28 54.80156 -42.87344 38022 ft 491 kts 258°
2026-05-05 17:29 54.79195 -42.99099 38007 ft 490 kts 258°
2026-05-05 17:29 54.78231 -43.10751 38003 ft 489 kts 258°
2026-05-05 17:30 54.77260 -43.22345 37998 ft 489 kts 258°
2026-05-05 17:30 54.76270 -43.34029 37997 ft 489 kts 258°
2026-05-05 17:31 54.75271 -43.45671 37994 ft 490 kts 258°
2026-05-05 17:31 54.74256 -43.57377 37990 ft 492 kts 258°
2026-05-05 17:32 54.73234 -43.69029 37977 ft 489 kts 258°
2026-05-05 17:32 54.72206 -43.80609 37972 ft 488 kts 258°
2026-05-05 17:33 54.71158 -43.92284 37971 ft 490 kts 258°
2026-05-05 17:33 54.70108 -44.03854 37966 ft 491 kts 258°
2026-05-05 17:34 54.69033 -44.15568 37984 ft 492 kts 258°
2026-05-05 17:34 54.67957 -44.27169 37944 ft 490 kts 258°
2026-05-05 17:35 54.66865 -44.38805 37965 ft 489 kts 257°
2026-05-05 17:35 54.65764 -44.50417 37942 ft 491 kts 257°
2026-05-05 17:36 54.64650 -44.62051 37947 ft 492 kts 257°
2026-05-05 17:36 54.63522 -44.73708 37938 ft 492 kts 257°
2026-05-05 17:37 54.62382 -44.85354 37923 ft 491 kts 257°
2026-05-05 17:37 54.61239 -44.96923 37923 ft 490 kts 257°
2026-05-05 17:38 54.60084 -45.08482 37921 ft 490 kts 257°
2026-05-05 17:38 54.59112 -45.18138 37906 ft 490 kts 257°
2026-05-05 17:39 54.57936 -45.29700 37908 ft 490 kts 257°
2026-05-05 17:39 54.56743 -45.41311 37921 ft 491 kts 257°
2026-05-05 17:40 54.55547 -45.52849 37899 ft 489 kts 257°
2026-05-05 17:40 54.54337 -45.64394 37890 ft 489 kts 257°
2026-05-05 17:41 54.53117 -45.75930 37880 ft 489 kts 257°
2026-05-05 17:41 54.51884 -45.87476 37884 ft 489 kts 256°
2026-05-05 17:42 54.50646 -45.98967 37867 ft 489 kts 256°
2026-05-05 17:42 54.49396 -46.10459 37872 ft 488 kts 257°
2026-05-05 17:43 54.48140 -46.21886 37858 ft 487 kts 257°
2026-05-05 17:43 54.46871 -46.33336 37836 ft 488 kts 256°
2026-05-05 17:44 54.45590 -46.44796 37838 ft 491 kts 256°
2026-05-05 17:44 54.44293 -46.56283 37841 ft 490 kts 256°
2026-05-05 17:45 54.42980 -46.67814 37834 ft 490 kts 256°
2026-05-05 17:45 54.41670 -46.79226 37827 ft 487 kts 256°
2026-05-05 17:46 54.40346 -46.90638 37822 ft 487 kts 256°
2026-05-05 17:46 54.39019 -47.01984 37817 ft 487 kts 256°
2026-05-05 17:47 54.37675 -47.13382 37807 ft 487 kts 256°
2026-05-05 17:47 54.36318 -47.24792 37818 ft 487 kts 256°
2026-05-05 17:48 54.34947 -47.36213 37807 ft 488 kts 256°
2026-05-05 17:48 54.33576 -47.47538 37793 ft 487 kts 256°
2026-05-05 17:49 54.32186 -47.58931 37793 ft 487 kts 255°
2026-05-05 17:49 54.30788 -47.70298 37787 ft 488 kts 255°
2026-05-05 17:50 54.29385 -47.81599 37784 ft 488 kts 255°
2026-05-05 17:50 54.27961 -47.92978 37760 ft 487 kts 255°
2026-05-05 17:51 54.26541 -48.04239 37761 ft 483 kts 255°
2026-05-05 17:51 54.25108 -48.15512 37763 ft 485 kts 255°
2026-05-05 17:52 54.23671 -48.26730 37765 ft 488 kts 255°
2026-05-05 17:52 54.22203 -48.38083 37754 ft 487 kts 255°
2026-05-05 17:53 54.20732 -48.49382 37749 ft 486 kts 255°
2026-05-05 17:53 54.19260 -48.60598 37741 ft 486 kts 255°
2026-05-05 17:54 54.17768 -48.71879 37738 ft 487 kts 255°
2026-05-05 17:54 54.16264 -48.83161 37737 ft 486 kts 255°
2026-05-05 17:55 54.14759 -48.94360 37727 ft 486 kts 254°
2026-05-05 17:55 54.13244 -49.05564 37730 ft 487 kts 254°
2026-05-05 17:56 54.11711 -49.16799 37724 ft 485 kts 255°
2026-05-05 17:56 54.10177 -49.27961 37718 ft 482 kts 255°
2026-05-05 17:57 54.08635 -49.39091 37702 ft 482 kts 254°
2026-05-05 17:57 54.07082 -49.50242 37706 ft 484 kts 253°
2026-05-05 17:58 54.05525 -49.61313 37699 ft 484 kts 254°
2026-05-05 17:58 54.03952 -49.72430 37703 ft 484 kts 255°
2026-05-05 17:59 54.02372 -49.83516 37697 ft 481 kts 254°
2026-05-05 17:59 54.00777 -49.94624 37699 ft 481 kts 254°
2026-05-05 18:00 53.98710 -50.05366 37696 ft 481 kts 246°
2026-05-05 18:00 53.96169 -50.15880 37691 ft 482 kts 245°
2026-05-05 18:01 53.93628 -50.26341 37690 ft 480 kts 245°
2026-05-05 18:01 53.91077 -50.36807 37679 ft 480 kts 245°
2026-05-05 18:02 53.88516 -50.47245 37677 ft 480 kts 246°
2026-05-05 18:02 53.85947 -50.57682 37665 ft 479 kts 245°
2026-05-05 18:03 53.83363 -50.68123 37663 ft 478 kts 245°
2026-05-05 18:03 53.80782 -50.78504 37668 ft 479 kts 245°
2026-05-05 18:04 53.78207 -50.88817 37660 ft 476 kts 246°
2026-05-05 18:04 53.75612 -50.99157 37661 ft 476 kts 245°
2026-05-05 18:05 53.73020 -51.09435 37653 ft 478 kts 245°
2026-05-05 18:05 53.70412 -51.19735 37653 ft 478 kts 245°
2026-05-05 18:06 53.67797 -51.30005 37649 ft 478 kts 246°
2026-05-05 18:06 53.65169 -51.40293 37649 ft 478 kts 245°
2026-05-05 18:07 53.62534 -51.50550 37643 ft 478 kts 245°
2026-05-05 18:07 53.59884 -51.60819 37635 ft 477 kts 245°
2026-05-05 18:08 53.57238 -51.71030 37632 ft 476 kts 245°
2026-05-05 18:08 53.54575 -51.81261 37632 ft 477 kts 246°
2026-05-05 18:09 53.51905 -51.91470 37629 ft 475 kts 245°
2026-05-05 18:09 53.49246 -52.01589 37622 ft 475 kts 245°
2026-05-05 18:10 53.46555 -52.11789 37618 ft 476 kts 245°
2026-05-05 18:10 53.43874 -52.21903 37621 ft 476 kts 245°
2026-05-05 18:11 53.41182 -52.32012 37622 ft 475 kts 246°
2026-05-05 18:11 53.38491 -52.42078 37620 ft 476 kts 245°
2026-05-05 18:12 53.35768 -52.52211 37616 ft 478 kts 245°
2026-05-05 18:12 53.33039 -52.62327 37613 ft 477 kts 245°
2026-05-05 18:13 53.30296 -52.72450 37612 ft 477 kts 245°
2026-05-05 18:13 53.27562 -52.82494 37610 ft 474 kts 245°
2026-05-05 18:14 53.24829 -52.92491 37597 ft 474 kts 245°
2026-05-05 18:14 53.22076 -53.02516 37602 ft 474 kts 245°
2026-05-05 18:15 53.19320 -53.12513 37599 ft 474 kts 245°
2026-05-05 18:15 53.16560 -53.22479 37599 ft 474 kts 245°
2026-05-05 18:16 53.13790 -53.32437 37597 ft 473 kts 245°
2026-05-05 18:16 53.11018 -53.42362 37594 ft 473 kts 245°
2026-05-05 18:17 53.08229 -53.52303 37604 ft 474 kts 245°
2026-05-05 18:17 53.05429 -53.62240 37608 ft 476 kts 245°
2026-05-05 18:18 53.02632 -53.72127 37603 ft 475 kts 245°
2026-05-05 18:18 52.99801 -53.82091 37596 ft 475 kts 245°
2026-05-05 18:19 52.96977 -53.91987 37595 ft 475 kts 245°
2026-05-05 18:19 52.94145 -54.01872 37598 ft 475 kts 245°
2026-05-05 18:20 52.91310 -54.11725 37601 ft 475 kts 245°
2026-05-05 18:20 52.88459 -54.21590 37603 ft 474 kts 245°
2026-05-05 18:21 52.85617 -54.31388 37599 ft 472 kts 245°
2026-05-05 18:21 52.82757 -54.41202 37596 ft 472 kts 245°
2026-05-05 18:22 52.79905 -54.50951 37595 ft 472 kts 244°
2026-05-05 18:22 52.77043 -54.60693 37593 ft 472 kts 244°
2026-05-05 18:23 52.74166 -54.70446 37595 ft 473 kts 244°
2026-05-05 18:23 52.71275 -54.80208 37594 ft 473 kts 244°
2026-05-05 18:24 52.68379 -54.89947 37595 ft 473 kts 244°
2026-05-05 18:24 52.65470 -54.99687 37599 ft 473 kts 244°
2026-05-05 18:25 52.62574 -55.09345 37588 ft 473 kts 244°
2026-05-05 18:25 52.59647 -55.19069 37572 ft 471 kts 244°
2026-05-05 18:26 52.56737 -55.28695 37564 ft 470 kts 244°
2026-05-05 18:26 52.53823 -55.38298 37562 ft 470 kts 244°
2026-05-05 18:27 52.50885 -55.47941 37558 ft 470 kts 244°
2026-05-05 18:27 52.47956 -55.57517 37533 ft 470 kts 244°
2026-05-05 18:28 52.43571 -55.71781 37554 ft 466 kts 244°
2026-05-05 18:28 52.40638 -55.81275 37560 ft 469 kts 244°
2026-05-05 18:29 52.37993 -55.89050 37558 ft 469 kts 242°
2026-05-05 18:29 52.34761 -55.98345 37563 ft 471 kts 241°
2026-05-05 18:30 52.31517 -56.07552 37548 ft 467 kts 242°
2026-05-05 18:30 52.28292 -56.16719 37547 ft 465 kts 242°
2026-05-05 18:31 52.25060 -56.25851 37564 ft 466 kts 241°
2026-05-05 18:31 52.21799 -56.35037 37566 ft 466 kts 241°
2026-05-05 18:32 52.18560 -56.44128 37561 ft 466 kts 241°
2026-05-05 18:32 52.15282 -56.53295 37590 ft 467 kts 241°
2026-05-05 18:33 52.11997 -56.62447 37590 ft 468 kts 241°
2026-05-05 18:33 52.08719 -56.71547 37607 ft 469 kts 241°
2026-05-05 18:34 52.05405 -56.80713 37602 ft 467 kts 241°
2026-05-05 18:34 52.02131 -56.89736 37605 ft 465 kts 241°
2026-05-05 18:35 51.98853 -56.98739 37607 ft 463 kts 241°
2026-05-05 18:35 51.95564 -57.07741 37618 ft 465 kts 241°
2026-05-05 18:36 51.92260 -57.16752 37620 ft 466 kts 241°
2026-05-05 18:36 51.88928 -57.25805 37635 ft 467 kts 241°
2026-05-05 18:37 51.85596 -57.34826 37631 ft 468 kts 241°
2026-05-05 18:37 51.82266 -57.43809 37640 ft 467 kts 241°
2026-05-05 18:38 51.78923 -57.52797 37646 ft 466 kts 241°
2026-05-05 18:38 51.75575 -57.61768 37641 ft 465 kts 241°
2026-05-05 18:39 51.72249 -57.70646 37646 ft 465 kts 241°
2026-05-05 18:39 51.68889 -57.79587 37653 ft 467 kts 241°
2026-05-05 18:40 51.65511 -57.88542 37657 ft 468 kts 241°
2026-05-05 18:40 51.62126 -57.97483 37666 ft 467 kts 241°
2026-05-05 18:41 51.58731 -58.06419 37657 ft 464 kts 241°
2026-05-05 18:41 51.55378 -58.15218 37653 ft 464 kts 241°
2026-05-05 18:42 51.52004 -58.24036 37652 ft 464 kts 241°
2026-05-05 18:42 51.48606 -58.32891 37652 ft 464 kts 240°
2026-05-05 18:43 51.45217 -58.41690 37655 ft 464 kts 240°
2026-05-05 18:43 51.41820 -58.50481 37648 ft 465 kts 240°
2026-05-05 18:44 51.38418 -58.59253 37655 ft 462 kts 240°
2026-05-05 18:44 51.35025 -58.67973 37646 ft 462 kts 240°
2026-05-05 18:45 51.31633 -58.76662 37645 ft 462 kts 240°
2026-05-05 18:45 51.28223 -58.85366 37644 ft 462 kts 240°
2026-05-05 18:46 51.24810 -58.94049 37646 ft 459 kts 240°
2026-05-05 18:46 51.21418 -59.02651 37648 ft 458 kts 240°
2026-05-05 18:47 51.18014 -59.11251 37652 ft 458 kts 240°
2026-05-05 18:47 51.14623 -59.19794 37650 ft 458 kts 240°
2026-05-05 18:48 51.11200 -59.28388 37622 ft 459 kts 240°
2026-05-05 18:48 51.07775 -59.36956 37658 ft 458 kts 240°
2026-05-05 18:49 51.04349 -59.45501 37660 ft 458 kts 240°
2026-05-05 18:49 51.00935 -59.53986 37660 ft 458 kts 240°
2026-05-05 18:50 50.97489 -59.62524 37659 ft 458 kts 239°
2026-05-05 18:50 50.94045 -59.71030 37649 ft 457 kts 239°
2026-05-05 18:51 50.90612 -59.79479 37660 ft 456 kts 239°
2026-05-05 18:51 50.87170 -59.87925 37658 ft 456 kts 239°
2026-05-05 18:52 50.83718 -59.96366 37663 ft 456 kts 239°
2026-05-05 18:52 50.80283 -60.04740 37665 ft 457 kts 239°
2026-05-05 18:53 50.76817 -60.13161 37671 ft 458 kts 239°
2026-05-05 18:53 50.73336 -60.21590 37684 ft 458 kts 239°
2026-05-05 18:54 50.69854 -60.29996 37688 ft 456 kts 239°
2026-05-05 18:54 50.66375 -60.38369 37686 ft 455 kts 239°
2026-05-05 18:55 50.62908 -60.46684 37707 ft 454 kts 239°
2026-05-05 18:55 50.59438 -60.54982 37701 ft 454 kts 239°
2026-05-05 18:56 50.55960 -60.63270 37703 ft 454 kts 239°
2026-05-05 18:56 50.52476 -60.71550 37709 ft 454 kts 239°
2026-05-05 18:57 50.48987 -60.79813 37726 ft 454 kts 239°
2026-05-05 18:57 50.45499 -60.88048 37723 ft 452 kts 239°
2026-05-05 18:58 50.42030 -60.96214 37733 ft 451 kts 239°
2026-05-05 18:58 50.38538 -61.04407 37732 ft 451 kts 239°
2026-05-05 18:59 50.35054 -61.12555 37740 ft 451 kts 239°
2026-05-05 18:59 50.31570 -61.20675 37732 ft 442 kts 239°
2026-05-05 19:00 50.28201 -61.28509 37734 ft 430 kts 239°
2026-05-05 19:00 50.24852 -61.36279 37729 ft 435 kts 239°
2026-05-05 19:01 50.21445 -61.44145 37735 ft 437 kts 239°
2026-05-05 19:01 50.18049 -61.51974 37732 ft 437 kts 239°
2026-05-05 19:02 50.14640 -61.59803 37722 ft 433 kts 239°
2026-05-05 19:02 50.11273 -61.67514 37715 ft 429 kts 239°
2026-05-05 19:03 50.07894 -61.75234 37911 ft 432 kts 239°
2026-05-05 19:03 50.06218 -61.79054 38119 ft 432 kts 238°
2026-05-05 19:03 50.04519 -61.82917 38349 ft 432 kts 238°
2026-05-05 19:04 50.02815 -61.86789 38520 ft 432 kts 238°
2026-05-05 19:04 50.01113 -61.90652 38657 ft 433 kts 238°
2026-05-05 19:04 49.99404 -61.94525 38785 ft 434 kts 238°
2026-05-05 19:04 49.97693 -61.98394 38906 ft 435 kts 238°
2026-05-05 19:05 49.95998 -62.02224 39032 ft 436 kts 238°
2026-05-05 19:05 49.94275 -62.06110 39177 ft 436 kts 238°
2026-05-05 19:05 49.92551 -62.09995 39295 ft 437 kts 238°
2026-05-05 19:05 49.90817 -62.13894 39399 ft 439 kts 238°
2026-05-05 19:06 49.89076 -62.17804 39511 ft 440 kts 237°
2026-05-05 19:06 49.87332 -62.21715 39607 ft 441 kts 237°
2026-05-05 19:06 49.83818 -62.29577 39716 ft 446 kts 237°
2026-05-05 19:07 49.80287 -62.37453 39695 ft 445 kts 237°
2026-05-05 19:07 49.76763 -62.45291 39688 ft 441 kts 237°
2026-05-05 19:08 49.73278 -62.53020 39691 ft 441 kts 237°
2026-05-05 19:08 49.69759 -62.60801 39690 ft 442 kts 237°
2026-05-05 19:09 49.66227 -62.68589 39697 ft 443 kts 236°
2026-05-05 19:09 49.62694 -62.76354 39699 ft 444 kts 236°
2026-05-05 19:10 49.59128 -62.84170 39707 ft 444 kts 236°
2026-05-05 19:10 49.55567 -62.91952 39708 ft 444 kts 236°
2026-05-05 19:11 49.51995 -62.99737 39710 ft 444 kts 236°
2026-05-05 19:11 49.48442 -63.07457 39711 ft 446 kts 236°
2026-05-05 19:12 49.44836 -63.15269 39713 ft 445 kts 236°
2026-05-05 19:12 49.41262 -63.22989 39715 ft 444 kts 236°
2026-05-05 19:13 49.37686 -63.30690 39707 ft 443 kts 236°
2026-05-05 19:13 49.34107 -63.38376 39702 ft 441 kts 236°